Location: Limerick
(52.6650°N, 8.6230°W)
Time: 16:36:27
(UTC+01:00)

Mayak - Visible Passes

Search period start: 18 June 2018 00:00
Search period end: 28 June 2018 00:00
Orbit: 584 x 603 km, 97.6° (Epoch: 18 June)

Date Brightness Start Highest point End Pass type
(mag) Time Alt. Az. Time Alt. Az. Time Alt. Az.
18 Jun -1.1 00:52:32 10° NNE 00:56:42 59° E 00:59:14 22° S visible
18 Jun 0.9 02:28:53 10° NNW 02:31:57 20° WNW 02:34:59 10° WSW visible
19 Jun -1.2 01:01:43 10° NNE 01:05:55 73° ESE 01:08:33 22° S visible
19 Jun 1.1 02:38:20 10° NNW 02:41:03 17° WNW 02:43:45 10° W visible
19 Jun 1.0 23:37:13 10° ENE 23:38:50 12° E 23:40:26 10° ESE visible
20 Jun -1.3 01:10:54 10° NNE 01:15:07 89° ESE 01:17:50 21° SSW visible
20 Jun 1.2 02:47:50 10° NNW 02:50:08 15° NW 02:52:25 10° W visible
20 Jun 0.8 23:45:48 10° NE 23:48:08 15° E 23:50:29 10° ESE visible
21 Jun -1.2 01:20:07 10° N 01:24:18 75° WNW 01:27:08 20° SSW visible
21 Jun 1.3 02:57:29 10° NNW 02:59:13 12° NW 03:00:55 10° WNW visible
21 Jun 0.6 23:54:37 10° NE 23:57:27 18° E 23:59:48 12° SE visible
22 Jun -0.9 01:29:21 10° N 01:33:29 61° WNW 01:36:25 18° SSW visible
22 Jun 1.5 03:07:31 10° NW 03:08:16 10° NW 03:09:01 10° WNW visible
23 Jun 0.4 00:03:32 10° NE 00:06:45 21° E 00:09:05 14° SE visible
23 Jun -0.6 01:38:35 10° N 01:42:39 50° WNW 01:45:42 16° SW visible
24 Jun 0.1 00:12:31 10° NE 00:16:01 25° E 00:18:22 16° SE visible
24 Jun -0.3 01:47:51 10° N 01:51:48 41° WNW 01:54:59 14° SW visible
25 Jun -0.1 00:21:34 10° NNE 00:25:17 30° E 00:27:39 18° SE visible
25 Jun 0.0 01:57:09 10° N 02:00:56 34° WNW 02:04:16 12° SW visible
26 Jun -0.4 00:30:38 10° NNE 00:34:32 37° E 00:36:56 20° SSE visible
26 Jun 0.3 02:06:27 10° N 02:10:04 29° WNW 02:13:33 10° WSW visible
27 Jun -0.7 00:39:44 10° NNE 00:43:46 45° E 00:46:13 21° SSE visible
27 Jun 0.6 02:15:47 10° N 02:19:11 24° WNW 02:22:33 10° WSW visible
